Regional Weather Roundup
Issued by NWS

Home | Current Version | Previous Version | Graphics & Text | Print | Product List | Glossary On
Versions: 1 2 3 4 5 6 7 8 9 10 11 12 13 14 15 16 17 18 19 20 21 22 23 24 25 26 27 28 29 30 31 32 33 34 35 36 37 38 39 40 41 42 43 44 45 46 47 48 49 50
511
ASUS44 KLIX 242005
RWRLA
LOUISIANA WEATHER ROUNDUP
NATIONAL WEATHER SERVICE NEW ORLEANS LA
300 PM CDT FRI OCT 24 2014

NOTE: "FAIR" INDICATES FEW OR NO CLOUDS BELOW 12,000 FEET WITH NO
      SIGNIFICANT WEATHER AND/OR OBSTRUCTIONS TO VISIBILITY.
      SKY/WX - SKY CONDITION AND SIGNIFICANT WEATHER.
      TMP - AIR TEMPERATURE.    DP   - DEWPOINT TEMPERATURE.
      RH  - RELATIVE HUMIDITY.  PRES - PRESSURE.
      HX  - HEAT INDEX.         WCI  - WIND CHILL INDEX.

*  THESE STATIONS ARE NOT NWS OR FAA STATIONS AND ARE NOT UNDER
   NWS QUALITY CONTROL.

LAZ040-048-061>063-065-066-069-242100-
SOUTHEAST LOUISIANA

CITY           SKY/WX    TMP DP  RH WIND       PRES   REMARKS
N.O. AUDUBON   NOT AVBL
N.O. INTL ARPT MOSUNNY   75  47  36 N7        30.05F
N.O. LAKEFRONT SUNNY     71  52  50 W9        30.05F
N.O. DOWNTOWN* FAIR      73  45  35 NW8       30.05F
SLIDELL        SUNNY     76  46  34 N6        30.03F
BATON ROUGE    SUNNY     76  44  32 VRB5      30.06F
BOOTHVILLE     SUNNY     71  54  54 N6        30.03F
BELLE CHASSE   SUNNY     75  41  29 N7        30.04S
BOGALUSA*        N/A     78  41  26 NE6       30.06F
NEW ROADS*     FAIR      74  47  37 N6        30.07F
GONZALES*      FAIR      75  43  31 N9        30.05F
HAMMOND*       SUNNY     79  36  21 N10       30.07S
HOUMA*         SUNNY     77  39  25 N6        30.04F
PORT FOURCHON* CLEAR     75  46  35 N10       30.07S

$$

LAZ041-044-053-054-242100-
SOUTHWEST LOUISIANA

CITY           SKY/WX    TMP DP  RH WIND       PRES   REMARKS
LAKE CHARLES   SUNNY     76  47  35 N5        30.08F
LAFAYETTE      SUNNY     76  48  37 N9        30.07F
PATTERSON      SUNNY     75  50  41 N7        30.08F
SALT POINT       N/A     77  50  38 VRB6      30.05F
NEW IBERIA     SUNNY     77  47  34 N8        30.07F
CHENAULT AIRPK SUNNY     75  48  38 N8        30.09

$$

LAZ027-028-242100-
CENTRAL LOUISIANA

CITY           SKY/WX    TMP DP  RH WIND       PRES   REMARKS
FORT POLK      SUNNY     74  46  36 NE5       30.09F
ALEXANDRIA INT SUNNY     75  43  31 N6        30.08F
ALEXANDRIA     SUNNY     74  47  38 VRB5      30.10F

$$

LAZ001-002-242100-
NORTHWEST LOUISIANA

CITY           SKY/WX    TMP DP  RH WIND       PRES   REMARKS
SHREVEPORT     MOSUNNY   77  53  43 N6        30.11F
BARKSDALE AFB  SUNNY     77  47  34 N5        30.11F
DTN SHREVEPORT SUNNY     76  49  38 N5        30.12F

$$

LAZ014-016-242100-
NORTHEAST LOUISIANA

CITY           SKY/WX    TMP DP  RH WIND       PRES   REMARKS
MONROE         SUNNY     73  47  39 NW7       30.12F
TALLULAH       SUNNY     74  43  32 N5        30.10F

$$




USA.gov is the U.S. government's official web portal to all federal, state and local government web resources and services.